Regional Weather Roundup
Issued by NWS Goodland, KS

Home | Current Version | Previous Version | Text Only | Print | Product List | Glossary Off
Versions: 1 2 3 4 5 6 7 8 9 10 11 12 13 14 15 16 17 18 19 20 21 22 23 24 25 26 27 28 29 30 31 32 33 34 35 36 37 38 39 40 41 42 43 44 45 46 47 48 49 50

000
ASUS43 KGLD 202308
RWRGLD

GOODLAND FORECAST AREA HOURLY WEATHER ROUNDUP
NATIONAL WEATHER SERVICE GOODLAND KS
400 PM MST MON NOV 20 2017

...OFFICIAL OBSERVATIONS...

CITY           SKY/WX    TMP DP  RH WIND       PRES   REMARKS
GOODLAND KS    CLOUDY    63   8  11 NW8       29.74R
HILL CITY KS   CLOUDY    68  13  12 W7        29.68R
IMPERIAL NEB   CLOUDY    63  16  16 NW17G30   29.73R
MCCOOK NEB     CLOUDY    65  18  16 NW16      29.69R
AKRON CO       CLOUDY    63   8  11 NW21G33   29.80R
BURLINGTON CO  CLOUDY    69   0   6 NW7       29.78R
LIMON CO       CLEAR     62  10  13 N7        29.82R
$$

...UNOFFICIAL OBSERVATIONS...

CITY           SKY/WX    TMP DP  RH WIND       PRES   REMARKS
COLBY KS       CLOUDY    61  21  21 NW8       29.74S
LENORA KS        N/A     67  32  27 NW6         N/A
NORTON KS      CLEAR     66   1   7 W8        29.67
SHARON SPRINGS   N/A     67  18  15 CALM        N/A
TRIBUNE KS     CLOUDY    64  23  20 SW7       29.78
TRENTON NEB      N/A     64  32  30 NW8         N/A
YUMA CO        FAIR      63  12  14 W6        29.78R
$$




USA.gov is the U.S. government's official web portal to all federal, state and local government web resources and services.